Notices

What's New in latest Release from April 7th, 2021:

- Updated Glossary, including Speed of Maximum Gust, and Total Hourly Precipitation

- Updated national and regional climate services offices contacts and prices information

- Addition of station inventory lists for 1981-2010, 1971-2000, and 1961-1990 Normals.

If you haven't already, please take our survey and provide feedback about our website: https://eccc.sondage-survey.ca/f/LanguageSelection.aspx?s=442ca660-fcf1-47c0-95a9-59707d6fd709

Hourly Data Report for October 04, 2004

SHERBROOKE A
QUEBEC

45°26'00.000" N
71°41'00.000" W
241.40 m
7028124
71610
YSC

Download Data

Hourly Data (October 2004)
Hourly Data Report for October 4, 2004
TIME
LST
Temp Definition
°C
Dew Point Definition
°C
Rel Hum Definition
%
Precip. Amount Definition
mm

Wind Dir Definition
10's deg

Wind Spd Definition
km/h
Visibility Definition
km
Stn Press Definition
kPa
Hmdx Definition


Wind Chill Definition


Weather Definition


00:00 1.5 0.2 91   10 4 15.0 98.89      
01:00 2.4 1.2 92   9 9 15.0 98.85      
02:00 1.9 0.7 92     0 15.0 98.79      
03:00 0.2 -1.2 90   9 6 15.0 98.76      
04:00 0.5 -0.8 91     0 15.0 98.72      
05:00 0.3 -0.9 92   8 6 15.0 98.68      
06:00 0.8 -0.2 93   2 4 12.9 98.65      
07:00 3.7 2.4 91     0 24.1 98.62     Mostly Cloudy
08:00 9.0 6.0 81   36 4 24.1 98.58     Mostly Cloudy
09:00 14.0 6.6 61   17 17 24.1 98.49     Mostly Cloudy
10:00 16.1 5.9 51   19 17 24.1 98.42     Mostly Cloudy
11:00 16.8 5.0 46   20 24 24.1 98.38     Mostly Cloudy
12:00 17.3 4.1 41   21 32 24.1 98.31     Mostly Cloudy
13:00 18.5 4.3 39   21 24 24.1 98.21     Mostly Cloudy
14:00 18.4 6.3 45   21 19 24.1 98.17     Mostly Cloudy
15:00 18.4 5.8 44   23 17 24.1 98.15     Mostly Cloudy
16:00 17.6 5.7 46   23 15 24.1 98.19     Mostly Cloudy
17:00 10.7 4.8 67   31 32 15.0 98.41      
18:00 8.9 6.1 83   28 20 15.0 98.64     Rain
19:00 7.4 6.2 92   25 11 15.0 98.79     Rain
20:00 6.9 6.1 95   30 7 12.9 98.88     Rain
21:00 4.7 2.1 83   34 17 15.0 99.01      
22:00 3.7 1.4 85   32 11 15.0 99.06      
23:00 2.2 0.7 90     0 15.0 99.17      

Notes on Data Quality.

Legend

  • E = Estimated
  • M = Missing
  • NA = Not Available*
  • [empty] = Indicates an unobserved value
Date modified: